Regional Weather Roundup
Issued by NWS

Home | Current Version | Previous Version | Graphics & Text | Print | Product List | Glossary On
Versions: 1 2 3 4 5 6 7 8 9 10 11 12 13 14 15 16 17 18 19 20 21 22 23 24 25 26 27 28 29 30 31 32 33 34 35 36 37 38 39 40 41 42 43 44 45 46 47 48 49 50
000
ASUS43 KTOP 021359
RWRKS

WEATHER ROUNDUP FOR KANSAS
NATIONAL WEATHER SERVICE GOODLAND KS
900 AM CDT SUN AUG 02 2015

NOTE:  "FAIR" INDICATES FEW OR NO CLOUDS BELOW 12,000 FEET WITH NO
SIGNIFICANT WEATHER AND/OR OBSTRUCTIONS TO VISIBILITY.

KSZ001>006-013>018-027>032-041>047-021500-
NORTHWEST KANSAS

CITY           SKY/WX    TMP DP  RH WIND       PRES   REMARKS
GOODLAND       MOSUNNY   75  68  78 S5        30.02R
HAYS           SUNNY     77  64  65 SW10      29.95F
HILL CITY      SUNNY     78  70  76 SW3       29.95S
RUSSELL        SUNNY     78  70  76 S13       29.94R
$$

KSZ061>065-074>080-084>089-021500-
SOUTHWEST KANSAS

CITY           SKY/WX    TMP DP  RH WIND       PRES   REMARKS
DODGE CITY     SUNNY     74  67  78 S5        29.98S
ELKHART          N/A     74  63  69 SW12        N/A
GARDEN CITY    SUNNY     73  65  75 VRB3      29.98S
GREAT BEND     SUNNY     77  68  73 S8        29.95S
LIBERAL        SUNNY     73  61  64 E7        29.99R
PRATT          SUNNY     73  68  83 S10       29.99R
$$

KSZ066>073-081>083-090>101-021500-
SOUTHEAST KANSAS

CITY           SKY/WX    TMP DP  RH WIND       PRES   REMARKS
CHANUTE        MOSUNNY   78  67  68 S7        29.98R
COFFEYVILLE    SUNNY     79  69  71 S6        29.98R
HUTCHINSON     MOSUNNY   78  69  73 S7        29.97S
MEDICINE LODGE   N/A     75  69  81 S7        29.97S
NEWTON         SUNNY     75  64  69 SW9       30.00R
PARSONS        SUNNY     78  70  76 S7        29.99R
WICHITA INTL   MOSUNNY   78  69  73 S8        29.97R
WICHITA JABRA  SUNNY     79  68  69 S8        29.97S
WINFIELD       SUNNY     78  71  79 S5        29.99R
$$

KSZ007>012-019>026-033>040-048>060-102>105-021500-
NORTHEAST KANSAS

CITY           SKY/WX    TMP DP  RH WIND       PRES   REMARKS
CONCORDIA      SUNNY     79  69  71 SW12      29.92S
EMPORIA        SUNNY     78  67  68 S8        29.96S
LAWRENCE       SUNNY     80  68  66 SW6       29.93S
MANHATTAN      SUNNY     80  71  74 SW10      29.93R
OLATHE IND     SUNNY     78  67  68 S13       29.96S
OLATHE EXE     SUNNY     78  68  71 SW9       29.95S
SALINA         SUNNY     81  69  67 SW13      29.94R
TOPEKA BILLARD SUNNY     80  69  69 SW6       29.93R
TOPEKA FORBES  SUNNY     80  68  66 SW8       29.94R
$$



USA.gov is the U.S. government's official web portal to all federal, state and local government web resources and services.